This is the latest recevied weather packets stored in our database for station/object OE3BCB-14. If no packets are shown the sender has not sent any weather packets the latest 10 day(s).
| Time | Temp. | Humidity | Pressure | Rain* | Wind** | Luminosity | Snow |
|---|---|---|---|---|---|---|---|
| 1777826686 | 33.33° C | 17% | 1014.9 hPa | - | - | 60 W/m² | - |
| 1777826081 | 34.44° C | 17% | 1015 hPa | - | - | 81 W/m² | - |
| 1777825779 | 35° C | 16% | 1014.9 hPa | - | - | 85 W/m² | - |
| 1777825476 | 34.44° C | 16% | 1014.9 hPa | - | - | 89 W/m² | - |
| 1777825174 | 35.56° C | 16% | 1014.9 hPa | - | - | 88 W/m² | - |
| 1777824871 | 35.56° C | 16% | 1015.1 hPa | - | - | 91 W/m² | - |
| 1777824569 | 36.11° C | 16% | 1014.9 hPa | - | - | 91 W/m² | - |
| 1777824266 | 36.67° C | 16% | 1014.9 hPa | - | - | 94 W/m² | - |
| 1777823964 | 37.22° C | 15% | 1015 hPa | - | - | 96 W/m² | - |
| 1777823662 | 37.22° C | 16% | 1015.1 hPa | - | - | 98 W/m² | - |
| 1777823359 | 37.22° C | 16% | 1015 hPa | - | - | 100 W/m² | - |
| 1777823057 | 37.22° C | 15% | 1015 hPa | - | - | 101 W/m² | - |
| 1777822754 | 37.78° C | 16% | 1015.1 hPa | - | - | 102 W/m² | - |
| 1777822452 | 37.78° C | 16% | 1015.1 hPa | - | - | 104 W/m² | - |
| 1777822150 | 37.78° C | 16% | 1015.4 hPa | - | - | 106 W/m² | - |
| 1777821847 | 37.78° C | 16% | 1015.3 hPa | - | - | 105 W/m² | - |
| 1777821242 | 37.78° C | 15% | 1015.4 hPa | - | - | 102 W/m² | - |
| 1777820940 | 38.33° C | 15% | 1015.4 hPa | - | - | 101 W/m² | - |
| 1777820637 | 38.89° C | 15% | 1015.6 hPa | - | - | 100 W/m² | - |
| 1777820335 | 37.78° C | 15% | 1015.5 hPa | - | - | 98 W/m² | - |
| 1777820033 | 38.33° C | 15% | 1015.4 hPa | - | - | 97 W/m² | - |
| 1777819730 | 39.44° C | 15% | 1015.6 hPa | - | - | 96 W/m² | - |
| 1777819428 | 40° C | 15% | 1015.8 hPa | - | - | 96 W/m² | - |
| 1777818823 | 38.89° C | 16% | 1015.8 hPa | - | - | 102 W/m² | - |
| 1777818521 | 38.33° C | 16% | 1015.8 hPa | - | - | 107 W/m² | - |
* Rain since midnight (hover to see other rain measurements)
** Current wind speed in m/s (hover to see current wind gust speed)